�������l�o���
Date,Time,MP-1(��Sv/h),MP-2(��Sv/h),MP-3(��Sv/h),MP-4(��Sv/h),MP-5(��Sv/h),MP-6(��Sv/h),MP-7(��Sv/h),MP-8(��Sv/h),����,����(m/s),���J
2015/03/01,00:00,1.893,3.463,3.752,3.380,3.590,1.092,1.798,2.008,���쐼,1.2,��
2015/03/01,00:10,1.895,3.465,3.757,3.380,3.593,1.092,1.798,2.008,�쐼,1.3,��
2015/03/01,00:20,1.895,3.468,3.758,3.378,3.590,1.092,1.800,2.010,�쐼,1.6,��
2015/03/01,00:30,1.895,3.467,3.753,3.382,3.590,1.090,1.798,2.012,��쐼,1.5,��
2015/03/01,00:40,1.892,3.467,3.755,3.383,3.587,1.092,1.800,2.010,��쐼,1.8,��
2015/03/01,00:50,1.892,3.467,3.757,3.382,3.588,1.095,1.798,2.008,��쐼,1.8,��
2015/03/01,01:00,1.892,3.468,3.757,3.382,3.592,1.093,1.800,2.008,��쐼,2.1,��
2015/03/01,01:10,1.892,3.470,3.758,3.380,3.590,1.095,1.800,2.010,��쐼,2.1,��
2015/03/01,01:20,1.893,3.470,3.755,3.382,3.592,1.092,1.797,2.012,��,2.2,��
2015/03/01,01:30,1.892,3.468,3.757,3.380,3.595,1.093,1.800,2.008,��,2.2,��
2015/03/01,01:40,1.890,3.463,3.755,3.378,3.593,1.092,1.802,2.008,��,2.4,��
2015/03/01,01:50,1.890,3.465,3.760,3.380,3.593,1.093,1.800,2.008,��,2.7,��
2015/03/01,02:00,1.892,3.467,3.760,3.378,3.592,1.095,1.800,2.008,��,3.1,��
2015/03/01,02:10,1.892,3.468,3.757,3.380,3.595,1.095,1.798,2.010,��,2.7,��
2015/03/01,02:20,1.893,3.467,3.757,3.382,3.597,1.098,1.802,2.010,��,3.2,��
2015/03/01,02:30,1.892,3.468,3.760,3.380,3.597,1.095,1.802,2.010,��,3.0,��
2015/03/01,02:40,1.895,3.468,3.760,3.387,3.597,1.095,1.802,2.010,��,3.2,��
2015/03/01,02:50,1.893,3.468,3.760,3.387,3.595,1.095,1.800,2.007,��,3.6,��
2015/03/01,03:00,1.893,3.470,3.758,3.380,3.592,1.095,1.800,2.008,��,4.0,��
2015/03/01,03:10,1.895,3.468,3.762,3.382,3.593,1.095,1.802,2.010,��,4.6,��
2015/03/01,03:20,1.893,3.465,3.758,3.382,3.593,1.095,1.803,2.007,��쐼,3.8,��
2015/03/01,03:30,1.893,3.468,3.757,3.383,3.597,1.097,1.803,2.008,��,4.6,��
2015/03/01,03:40,1.893,3.470,3.760,3.383,3.588,1.095,1.802,2.008,��,4.9,��
2015/03/01,03:50,1.895,3.468,3.760,3.385,3.593,1.093,1.807,2.005,��,4.7,��
2015/03/01,04:00,1.893,3.472,3.760,3.385,3.595,1.095,1.803,2.007,��,4.5,��
2015/03/01,04:10,1.893,3.478,3.765,3.385,3.592,1.097,1.803,2.007,��,4.2,��
2015/03/01,04:20,1.893,3.470,3.762,3.385,3.592,1.098,1.803,2.008,��,4.7,��
2015/03/01,04:30,1.895,3.470,3.763,3.382,3.593,1.095,1.802,2.010,��,4.3,��
2015/03/01,04:40,1.895,3.472,3.762,3.382,3.597,1.098,1.800,2.007,��,4.6,��
2015/03/01,04:50,1.895,3.475,3.762,3.385,3.593,1.095,1.803,2.010,��,5.0,��
2015/03/01,05:00,1.892,3.470,3.762,3.383,3.590,1.097,1.803,2.010,��,5.0,��
2015/03/01,05:10,1.895,3.470,3.765,3.378,3.595,1.097,1.807,2.010,��,5.7,��
2015/03/01,05:20,1.893,3.470,3.763,3.383,3.593,1.097,1.805,2.012,��,6.5,��
2015/03/01,05:30,1.897,3.470,3.767,3.385,3.595,1.097,1.805,2.007,��,6.8,��
2015/03/01,05:40,1.897,3.470,3.762,3.382,3.592,1.095,1.803,2.008,��,7.7,��
2015/03/01,05:50,1.898,3.470,3.763,3.385,3.595,1.097,1.805,2.010,��,7.5,��
2015/03/01,06:00,1.897,3.472,3.760,3.385,3.597,1.097,1.805,2.010,��,7.4,��
2015/03/01,06:10,1.895,3.468,3.765,3.383,3.598,1.098,1.802,2.012,��,6.7,��
2015/03/01,06:20,1.897,3.473,3.760,3.382,3.598,1.098,1.803,2.012,��,6.7,��
2015/03/01,06:30,1.897,3.475,3.763,3.385,3.592,1.097,1.802,2.010,��,6.0,��
2015/03/01,06:40,1.895,3.470,3.765,3.382,3.592,1.097,1.803,2.010,��,6.3,��
2015/03/01,06:50,1.893,3.468,3.760,3.382,3.593,1.098,1.803,2.010,��,6.0,��
2015/03/01,07:00,1.895,3.470,3.765,3.382,3.598,1.097,1.808,2.010,��,6.3,��
2015/03/01,07:10,1.897,3.472,3.762,3.385,3.597,1.095,1.807,2.008,��,6.4,�L
2015/03/01,07:20,1.898,3.472,3.760,3.387,3.598,1.098,1.807,2.010,��,6.8,�L
2015/03/01,07:30,1.898,3.468,3.760,3.385,3.593,1.103,1.807,2.010,��,6.9,�L
2015/03/01,07:40,1.898,3.462,3.757,3.383,3.590,1.102,1.807,2.008,��,6.5,�L
2015/03/01,07:50,1.893,3.462,3.752,3.383,3.587,1.098,1.803,2.008,��,7.1,�L
2015/03/01,08:00,1.895,3.455,3.752,3.383,3.583,1.098,1.805,2.007,��,6.5,��
2015/03/01,08:10,1.897,3.458,3.753,3.378,3.580,1.097,1.805,2.008,��쐼,5.8,�L
2015/03/01,08:20,1.897,3.457,3.752,3.382,3.580,1.097,1.802,2.007,��,6.1,��
2015/03/01,08:30,1.893,3.457,3.752,3.383,3.575,1.097,1.800,2.008,��,5.2,�L
2015/03/01,08:40,1.897,3.458,3.752,3.383,3.582,1.097,1.803,2.005,��,5.3,��
2015/03/01,08:50,1.895,3.460,3.753,3.387,3.583,1.097,1.802,2.007,��,4.7,��
2015/03/01,09:00,1.898,3.460,3.750,3.380,3.585,1.098,1.802,2.005,��,4.6,��
2015/03/01,09:10,1.900,3.462,3.753,3.383,3.587,1.098,1.805,2.007,��,4.7,�L
2015/03/01,09:20,1.897,3.462,3.755,3.382,3.588,1.100,1.805,2.005,��,3.5,��
2015/03/01,09:30,1.897,3.463,3.758,3.382,3.587,1.102,1.803,2.002,��,4.4,��
2015/03/01,09:40,1.895,3.460,3.758,3.383,3.587,1.100,1.802,2.007,��,5.3,��
2015/03/01,09:50,1.897,3.462,3.757,3.383,3.590,1.100,1.805,2.005,��,5.6,��
2015/03/01,10:00,1.898,3.463,3.753,3.385,3.588,1.098,1.807,2.003,��,6.1,��
2015/03/01,10:10,1.895,3.462,3.762,3.383,3.595,1.100,1.808,2.002,��,5.6,��
2015/03/01,10:20,1.898,3.468,3.763,3.385,3.600,1.100,1.807,2.007,��,5.8,��
2015/03/01,10:30,1.900,3.465,3.762,3.385,3.597,1.100,1.807,2.005,��,6.0,��
2015/03/01,10:40,1.898,3.467,3.762,3.382,3.593,1.098,1.807,2.005,��,5.5,��
2015/03/01,10:50,1.897,3.470,3.763,3.387,3.595,1.100,1.805,2.002,��,6.3,�L
2015/03/01,11:00,1.895,3.467,3.765,3.388,3.597,1.098,1.805,2.005,��,4.7,�L
2015/03/01,11:10,1.897,3.463,3.767,3.387,3.595,1.100,1.807,2.005,��,4.1,�L
2015/03/01,11:20,1.897,3.467,3.767,3.385,3.593,1.100,1.805,2.005,��쓌,4.2,��
2015/03/01,11:30,1.898,3.467,3.768,3.388,3.595,1.102,1.808,2.005,��,4.5,��
2015/03/01,11:40,1.898,3.468,3.765,3.387,3.600,1.103,1.807,2.007,��쓌,6.1,�L
2015/03/01,11:50,1.898,3.468,3.757,3.387,3.595,1.098,1.803,2.005,��,5.2,�L
2015/03/01,12:00,1.897,3.467,3.763,3.387,3.600,1.102,1.808,2.005,��,5.2,�L
2015/03/01,12:10,1.895,3.467,3.758,3.388,3.598,1.102,1.805,2.005,��,6.6,�L
2015/03/01,12:20,1.897,3.467,3.758,3.388,3.592,1.102,1.805,2.007,��,6.5,�L
2015/03/01,12:30,1.897,3.458,3.758,3.385,3.592,1.103,1.807,2.005,��,7.8,�L
2015/03/01,12:40,1.897,3.460,3.753,3.383,3.587,1.100,1.805,2.003,��,7.8,�L
2015/03/01,12:50,1.897,3.457,3.757,3.383,3.582,1.100,1.807,2.003,��,8.0,�L
2015/03/01,13:00,1.900,3.450,3.748,3.380,3.580,1.102,1.805,2.007,��,6.6,�L
2015/03/01,13:10,1.900,3.453,3.748,3.378,3.582,1.100,1.807,2.003,��,7.1,�L
2015/03/01,13:20,1.898,3.450,3.745,3.380,3.573,1.102,1.805,2.005,��,7.4,�L
2015/03/01,13:30,1.895,3.445,3.742,3.378,3.570,1.100,1.807,2.002,��,6.6,�L
2015/03/01,13:40,1.897,3.442,3.742,3.377,3.565,1.100,1.802,2.000,��,6.5,�L
2015/03/01,13:50,1.895,3.430,3.730,3.373,3.557,1.100,1.803,1.997,��,4.9,�L
2015/03/01,14:00,1.895,3.417,3.715,3.368,3.545,1.100,1.798,2.000,��쐼,4.7,�L
2015/03/01,14:10,1.892,3.402,3.705,3.362,3.530,1.098,1.797,1.998,��,4.6,�L
2015/03/01,14:20,1.890,3.393,3.702,3.362,3.528,1.098,1.795,1.997,��,5.7,�L
2015/03/01,14:30,1.890,3.393,3.698,3.357,3.527,1.097,1.795,1.993,��쓌,5.7,�L
2015/03/01,14:40,1.888,3.392,3.702,3.352,3.527,1.097,1.795,1.995,��,5.3,�L
2015/03/01,14:50,1.888,3.388,3.702,3.355,3.520,1.095,1.795,1.995,��,6.6,�L
2015/03/01,15:00,1.890,3.385,3.698,3.350,3.522,1.093,1.792,1.995,��,6.3,�L
2015/03/01,15:10,1.885,3.383,3.695,3.350,3.518,1.093,1.792,1.992,��,6.0,�L
2015/03/01,15:20,1.885,3.378,3.690,3.345,3.510,1.095,1.790,1.990,��,5.8,�L
2015/03/01,15:30,1.883,3.367,3.680,3.343,3.505,1.092,1.792,1.990,��쓌,6.7,�L
2015/03/01,15:40,1.880,3.352,3.670,3.338,3.490,1.093,1.790,1.987,��,6.3,�L
2015/03/01,15:50,1.877,3.348,3.665,3.333,3.482,1.095,1.788,1.987,��,6.9,�L
2015/03/01,16:00,1.877,3.350,3.665,3.327,3.480,1.095,1.790,1.987,��쓌,6.3,�L
2015/03/01,16:10,1.875,3.350,3.662,3.327,3.482,1.093,1.790,1.988,��쓌,4.8,�L
2015/03/01,16:20,1.873,3.335,3.650,3.313,3.470,1.090,1.788,1.983,��쓌,5.4,�L
2015/03/01,16:30,1.867,3.317,3.633,3.305,3.457,1.092,1.787,1.978,��,5.2,�L
2015/03/01,16:40,1.862,3.303,3.618,3.295,3.447,1.092,1.783,1.977,��,6.1,�L
2015/03/01,16:50,1.860,3.292,3.617,3.290,3.435,1.090,1.780,1.977,��,6.5,�L
2015/03/01,17:00,1.848,3.282,3.603,3.280,3.418,1.087,1.775,1.972,��,5.5,�L
2015/03/01,17:10,1.838,3.253,3.577,3.260,3.383,1.083,1.768,1.965,��,6.4,�L
2015/03/01,17:20,1.837,3.243,3.570,3.248,3.377,1.083,1.767,1.965,��,7.2,�L
2015/03/01,17:30,1.835,3.252,3.582,3.252,3.388,1.083,1.767,1.963,��,6.5,�L
2015/03/01,17:40,1.837,3.258,3.583,3.252,3.385,1.082,1.767,1.967,��,5.3,�L
2015/03/01,17:50,1.830,3.242,3.562,3.238,3.365,1.078,1.765,1.962,��,4.9,�L
2015/03/01,18:00,1.825,3.227,3.548,3.225,3.348,1.080,1.760,1.960,��,4.6,�L
2015/03/01,18:10,1.822,3.213,3.540,3.218,3.333,1.080,1.758,1.957,��,4.5,�L
2015/03/01,18:20,1.823,3.222,3.542,3.222,3.337,1.078,1.757,1.955,��,3.2,�L
2015/03/01,18:30,1.825,3.220,3.545,3.220,3.333,1.078,1.755,1.957,��쓌,2.8,�L
2015/03/01,18:40,1.815,3.198,3.523,3.205,3.305,1.075,1.750,1.952,���쓌,2.4,�L
2015/03/01,18:50,1.807,3.190,3.520,3.195,3.283,1.072,1.745,1.952,�k��,4.4,�L
2015/03/01,19:00,1.807,3.182,3.512,3.188,3.268,1.073,1.743,1.950,�k�k��,2.8,�L
2015/03/01,19:10,1.808,3.185,3.515,3.190,3.263,1.072,1.738,1.948,�k�k��,7.1,�L
2015/03/01,19:20,1.813,3.183,3.517,3.190,3.263,1.072,1.735,1.950,�k�k��,3.8,�L
2015/03/01,19:30,1.812,3.180,3.513,3.192,3.257,1.070,1.737,1.947,�k,4.3,�L
2015/03/01,19:40,1.810,3.183,3.512,3.192,3.257,1.070,1.735,1.948,���쓌,3.4,�L
2015/03/01,19:50,1.812,3.183,3.505,3.185,3.247,1.068,1.732,1.943,�k,5.3,�L
2015/03/01,20:00,1.807,3.183,3.508,3.187,3.238,1.072,1.732,1.945,�k,2.5,�L
2015/03/01,20:10,1.810,3.182,3.508,3.185,3.233,1.070,1.728,1.943,�k�k��,5.7,�L
2015/03/01,20:20,1.808,3.185,3.505,3.187,3.232,1.067,1.725,1.945,�k,5.4,�L
2015/03/01,20:30,1.807,3.180,3.502,3.182,3.222,1.070,1.725,1.943,�k,7.5,�L
2015/03/01,20:40,1.805,3.178,3.495,3.180,3.215,1.067,1.723,1.942,�k,5.8,�L
2015/03/01,20:50,1.803,3.178,3.493,3.177,3.207,1.065,1.725,1.942,�k�k��,8.0,�L
2015/03/01,21:00,1.800,3.175,3.492,3.175,3.198,1.065,1.720,1.943,�k�k��,6.8,�L
2015/03/01,21:10,1.798,3.172,3.490,3.173,3.187,1.065,1.722,1.940,�k�k��,8.2,�L
2015/03/01,21:20,1.800,3.167,3.483,3.172,3.180,1.063,1.722,1.937,�k�k��,8.8,�L
2015/03/01,21:30,1.800,3.165,3.480,3.170,3.172,1.063,1.717,1.937,�k�k��,8.8,�L
2015/03/01,21:40,1.800,3.168,3.477,3.167,3.165,1.062,1.718,1.938,�k�k��,8.8,�L
2015/03/01,21:50,1.797,3.162,3.473,3.162,3.157,1.062,1.720,1.935,�k�k��,9.9,�L
2015/03/01,22:00,1.797,3.157,3.468,3.165,3.150,1.062,1.715,1.935,�k�k��,10.1,�L
2015/03/01,22:10,1.800,3.158,3.468,3.165,3.148,1.062,1.717,1.937,�k�k��,11.5,�L
2015/03/01,22:20,1.802,3.162,3.465,3.163,3.145,1.062,1.718,1.935,�k�k��,11.5,�L
2015/03/01,22:30,1.802,3.173,3.463,3.167,3.145,1.063,1.717,1.933,�k�k��,10.8,�L
2015/03/01,22:40,1.805,3.178,3.472,3.170,3.140,1.065,1.718,1.933,�k�k��,11.0,�L
2015/03/01,22:50,1.807,3.190,3.477,3.180,3.150,1.065,1.722,1.938,�k�k��,9.6,�L
2015/03/01,23:00,1.812,3.202,3.482,3.187,3.157,1.067,1.722,1.940,�k�k��,9.7,�L
2015/03/01,23:10,1.815,3.205,3.480,3.187,3.160,1.067,1.720,1.940,�k�k��,9.6,�L
2015/03/01,23:20,1.813,3.210,3.482,3.190,3.157,1.068,1.723,1.943,�k��,10.7,�L
2015/03/01,23:30,1.818,3.218,3.488,3.197,3.163,1.068,1.727,1.942,�k��,12.4,�L
2015/03/01,23:40,1.820,3.222,3.493,3.198,3.168,1.072,1.728,1.945,�k��,12.9,�L
2015/03/01,23:50,1.827,3.227,3.493,3.200,3.175,1.072,1.733,1.947,�k��,12.1,�L
